Weather History for KMZZ - March, 2014

Change the Weather History Date:

Monday, March 17, 2014

  Actual Average (KMIE) Record (KMIE)
Temperature  
Mean Temperature 26 °F 40 °F  
Max Temperature 37 °F 49 °F 75 °F (1982)
Min Temperature 14 °F 31 °F 14 °F (2014)
Degree Days  
Heating Degree Days 40 25  
Month to date heating degree days 477  
Since 1 July heating degree days 4860  
Cooling Degree Days 0 0  
Month to date cooling degree days 0  
Year to date cooling degree days 0  
Moisture  
Dew Point 16 °F    
Average Humidity 69    
Maximum Humidity 81    
Minimum Humidity 57    
Precipitation  
Precipitation 0.00 in 0.10 in 0.80 in (1973)
Month to date precipitation 1.50  
Year to date precipitation 6.04  
Sea Level Pressure  
Sea Level Pressure 29.94 in    
Wind  
Wind Speed 11 mph (East)    
Max Wind Speed 20 mph    
Max Gust Speed 24 mph    
Visibility 10 miles    
Events      
T = Trace of Precipitation, MM = Missing Value Source: NWS Daily Summary

Daily Weather History Graph

Daily Weather History Graph

Search for Another Location

Airport or City:

Trip Planner

Search our weather history database for the weather conditions in past years. The results will help you decide how hot, cold, wet, or windy it might be!

Date:

Astronomy

Mar. 17, 2014 Rise Set
Actual Time 7:51 AM EDT 7:51 PM EDT
Civil Twilight 7:23 AM EDT 8:18 PM EDT
Nautical Twilight 6:52 AM EDT 8:50 PM EDT
Astronomical Twilight 6:19 AM EDT 9:22 PM EDT
Moon 9:08 PM EDT (3/17) 8:06 AM EDT (3/17)
Length of Visible Light 12h 55m
Length of Day
12h 00m
Full, 99% of the Moon is Illuminated
Mar 17
Full
Mar 23
Last Quarter
Mar 30
New
Apr 7
First Quarter
Apr 15
Full

Hourly Weather History & Observations

Time (EDT) Temp. Windchill Dew Point Humidity Pressure Visibility Wind Dir Wind Speed Gust Speed Precip Events Conditions
12:15 AM 18.3 °F 2.2 °F 9.3 °F 68% 30.08 in 10.0 mi ENE 19.6 mph 24.2 mph N/A   Clear
12:35 AM 18.0 °F 4.8 °F 9.5 °F 70% 30.08 in 10.0 mi ENE 12.7 mph - N/A   Clear
12:55 AM 17.6 °F 3.7 °F 9.9 °F 72% 30.06 in 10.0 mi ENE 13.8 mph 20.7 mph N/A   Clear
1:15 AM 17.4 °F 4.7 °F 9.5 °F 71% 30.06 in 10.0 mi ENE 11.5 mph 23.0 mph N/A   Clear
1:35 AM 17.2 °F 3.9 °F 9.5 °F 72% 30.06 in 10.0 mi NE 12.7 mph 19.6 mph N/A   Clear
1:55 AM 16.9 °F 3.4 °F 9.5 °F 73% 30.06 in 10.0 mi ENE 12.7 mph 17.3 mph N/A   Clear
2:15 AM 16.7 °F 3.8 °F 9.3 °F 73% 30.05 in 10.0 mi ENE 11.5 mph - N/A   Clear
2:35 AM 16.7 °F 3.2 °F 9.5 °F 73% 30.05 in 10.0 mi ENE 12.7 mph 16.1 mph N/A   Clear
2:55 AM 16.5 °F 3.0 °F 9.3 °F 73% 30.04 in 10.0 mi ENE 12.7 mph 18.4 mph N/A   Clear
3:15 AM 16.3 °F 2.7 °F 9.5 °F 74% 30.05 in 10.0 mi ENE 12.7 mph 17.3 mph N/A   Clear
3:35 AM 16.2 °F 3.9 °F 9.3 °F 74% 30.04 in 10.0 mi ENE 10.4 mph - N/A   Clear
3:55 AM 16.0 °F 2.9 °F 9.3 °F 75% 30.03 in 10.0 mi ENE 11.5 mph - N/A   Clear
4:15 AM 15.8 °F 4.2 °F 9.5 °F 76% 30.02 in 10.0 mi ENE 9.2 mph - N/A   Clear
4:35 AM 15.8 °F 2.1 °F 9.5 °F 76% 30.01 in 10.0 mi ENE 12.7 mph - N/A   Clear
4:55 AM 15.6 °F 1.8 °F 9.5 °F 77% 30.01 in 10.0 mi ENE 12.7 mph - N/A   Clear
5:15 AM 15.4 °F 1.6 °F 9.5 °F 77% 29.99 in 10.0 mi East 12.7 mph - N/A   Clear
5:35 AM 15.3 °F 1.4 °F 9.5 °F 78% 29.99 in 10.0 mi East 12.7 mph - N/A   Clear
5:55 AM 14.9 °F 1.6 °F 9.3 °F 79% 29.97 in 10.0 mi East 11.5 mph - N/A   Clear
6:15 AM 14.9 °F 1.6 °F 9.3 °F 79% 29.97 in 10.0 mi ENE 11.5 mph - N/A   Clear
6:35 AM 14.9 °F 0.3 °F 9.5 °F 79% 29.98 in 10.0 mi ENE 13.8 mph 17.3 mph N/A   Clear
6:55 AM 14.7 °F 0.7 °F 9.3 °F 79% 29.97 in 10.0 mi ENE 12.7 mph 17.3 mph N/A   Clear
7:15 AM 14.7 °F 0.7 °F 9.5 °F 80% 29.98 in 10.0 mi ENE 12.7 mph - N/A   Clear
7:35 AM 14.5 °F 0.5 °F 9.5 °F 80% 29.98 in 10.0 mi ENE 12.7 mph 17.3 mph N/A   Clear
7:55 AM 14.5 °F 0.5 °F 9.3 °F 80% 29.98 in 10.0 mi ENE 12.7 mph - N/A   Clear
8:15 AM 14.5 °F 1.1 °F 9.3 °F 80% 29.98 in 10.0 mi ENE 11.5 mph - N/A   Clear
8:35 AM 14.9 °F 0.9 °F 9.5 °F 79% 29.98 in 10.0 mi East 12.7 mph 20.7 mph N/A   Clear
8:55 AM 15.8 °F 0.3 °F 9.7 °F 77% 29.97 in 10.0 mi East 16.1 mph - N/A   Clear
9:15 AM 16.5 °F 1.8 °F 10.0 °F 76% 29.97 in 10.0 mi East 15.0 mph 21.9 mph N/A   Clear
9:35 AM 17.6 °F 3.7 °F 10.2 °F 73% 29.97 in 10.0 mi East 13.8 mph - N/A   Clear
9:55 AM 18.3 °F 5.9 °F 10.8 °F 72% 29.97 in 10.0 mi East 11.5 mph - N/A   Scattered Clouds
10:15 AM 19.4 °F 7.9 °F 11.1 °F 70% 29.97 in 10.0 mi East 10.4 mph - N/A   Overcast
10:35 AM 20.5 °F 8.0 °F 11.5 °F 68% 29.96 in 10.0 mi East 12.7 mph - N/A   Overcast
10:55 AM 21.9 °F 10.4 °F 12.0 °F 66% 29.96 in 10.0 mi East 11.5 mph - N/A   Overcast
11:15 AM 23.5 °F 12.4 °F 12.6 °F 63% 29.96 in 10.0 mi East 11.5 mph 16.1 mph N/A   Overcast
11:35 AM 24.8 °F 14.0 °F 13.1 °F 61% 29.96 in 10.0 mi East 11.5 mph - N/A   Mostly Cloudy
11:55 AM 25.7 °F 18.0 °F 13.5 °F 60% 29.96 in 10.0 mi East 6.9 mph - N/A   Overcast
12:15 PM 27.3 °F 18.4 °F 14.0 °F 57% 29.96 in 10.0 mi ESE 9.2 mph - N/A   Overcast
12:35 PM 28.0 °F 20.0 °F 14.5 °F 57% 29.95 in 10.0 mi East 8.1 mph - N/A   Scattered Clouds
12:55 PM 29.1 °F 23.0 °F 15.8 °F 58% 29.93 in 10.0 mi ENE 5.8 mph - N/A   Clear
1:15 PM 30.2 °F 21.3 °F 16.7 °F 57% 29.91 in 10.0 mi East 10.4 mph - N/A   Clear
1:35 PM 31.1 °F 21.9 °F 17.8 °F 58% 29.91 in 10.0 mi East 11.5 mph - N/A   Clear
1:55 PM 31.8 °F 25.4 °F 18.0 °F 57% 29.90 in 10.0 mi SE 6.9 mph - N/A   Clear
2:15 PM 32.2 °F 25.8 °F 19.2 °F 59% 29.90 in 10.0 mi ESE 6.9 mph - N/A   Clear
2:35 PM 33.3 °F 27.9 °F 20.1 °F 59% 29.89 in 10.0 mi ENE 5.8 mph - N/A   Clear
2:55 PM 33.8 °F 27.7 °F 20.7 °F 59% 29.88 in 10.0 mi ENE 6.9 mph - N/A   Clear
3:15 PM 34.7 °F 28.8 °F 21.6 °F 59% 29.87 in 10.0 mi East 6.9 mph - N/A   Clear
3:35 PM 35.1 °F 28.6 °F 21.9 °F 59% 29.86 in 10.0 mi ESE 8.1 mph - N/A   Scattered Clouds
3:55 PM 35.8 °F 31.9 °F 21.9 °F 57% 29.86 in 10.0 mi SE 4.6 mph - N/A   Scattered Clouds
4:15 PM 36.1 °F 31.4 °F 22.5 °F 58% 29.85 in 10.0 mi East 5.8 mph - N/A   Clear
4:35 PM 36.5 °F 31.8 °F 22.6 °F 57% 29.85 in 10.0 mi East 5.8 mph - N/A   Clear
4:55 PM 37.0 °F 32.4 °F 23.2 °F 57% 29.85 in 10.0 mi ESE 5.8 mph - N/A   Clear
5:15 PM 37.4 °F 33.8 °F 23.7 °F 58% 29.85 in 10.0 mi ENE 4.6 mph - N/A   Clear
5:35 PM 37.4 °F 31.4 °F 24.4 °F 60% 29.85 in 10.0 mi South 8.1 mph - N/A   Scattered Clouds
5:55 PM 37.6 °F 32.3 °F 25.2 °F 61% 29.85 in 10.0 mi South 6.9 mph - N/A   Mostly Cloudy
6:15 PM 37.2 °F 32.6 °F 25.0 °F 61% 29.85 in 10.0 mi SSE 5.8 mph - N/A   Scattered Clouds
6:35 PM 37.0 °F 31.6 °F 25.0 °F 62% 29.85 in 10.0 mi South 6.9 mph - N/A   Clear
6:55 PM 36.7 °F 32.0 °F 25.0 °F 63% 29.85 in 10.0 mi SSE 5.8 mph - N/A   Clear
7:15 PM 36.5 °F 31.8 °F 24.3 °F 61% 29.86 in 10.0 mi SE 5.8 mph - N/A   Clear
7:35 PM 35.6 °F - 24.3 °F 63% 29.86 in 10.0 mi Calm Calm - N/A   Clear
7:55 PM 34.2 °F 30.0 °F 24.1 °F 67% 29.85 in 10.0 mi East 4.6 mph - N/A   Clear
8:15 PM 33.1 °F 28.7 °F 23.9 °F 69% 29.85 in 10.0 mi East 4.6 mph - N/A   Clear
8:35 PM 32.5 °F 29.3 °F 24.1 °F 71% 29.87 in 10.0 mi ENE 3.5 mph - N/A   Clear
8:55 PM 32.0 °F 28.7 °F 23.7 °F 71% 29.87 in 10.0 mi ESE 3.5 mph - N/A   Clear
9:15 PM 31.5 °F 26.8 °F 23.7 °F 73% 29.86 in 10.0 mi East 4.6 mph - N/A   Clear
9:35 PM 31.5 °F 26.8 °F 23.4 °F 72% 29.87 in 10.0 mi East 4.6 mph - N/A   Clear
9:55 PM 31.1 °F 27.7 °F 23.4 °F 73% 29.88 in 10.0 mi ESE 3.5 mph - N/A   Clear
10:15 PM 30.6 °F 25.8 °F 23.4 °F 75% 29.89 in 10.0 mi ESE 4.6 mph - N/A   Clear
10:35 PM 30.2 °F 24.3 °F 23.5 °F 76% 29.89 in 10.0 mi ESE 5.8 mph - N/A   Clear
10:55 PM 30.2 °F 25.4 °F 23.5 °F 76% 29.89 in 10.0 mi East 4.6 mph - N/A   Clear
11:15 PM 29.5 °F 24.5 °F 23.5 °F 79% 29.89 in 10.0 mi ESE 4.6 mph - N/A   Clear
11:35 PM 29.5 °F - 23.7 °F 79% 29.89 in 10.0 mi Calm Calm - N/A   Clear
11:55 PM 29.5 °F 24.5 °F 24.3 °F 81% 29.89 in 10.0 mi ENE 4.6 mph - N/A   Clear